Regional Weather Roundup
Issued by NWS Memphis, TN

Home | Current Version | Previous Version | Text Only | Print | Product List | Glossary On
Versions: 1 2 3 4 5 6 7 8 9 10 11 12 13 14 15 16 17 18 19 20 21 22 23 24 25 26 27 28 29 30 31 32 33 34 35 36 37 38 39 40 41 42 43 44 45 46 47 48 49 50
000
ASUS44 KMEG 161110
RWRMEG
MEMPHIS CWA HOURLY WEATHER ROUNDUP
NATIONAL WEATHER SERVICE MEMPHIS TN
500 AM CST MON JAN 16 2017

...WEST TENNESSEE...

CITY           SKY/WX    TMP DP  RH WIND       PRES   REMARKS
MEMPHIS INTL   CLOUDY    52  52 100 E5        30.11F
NWS MEMPHIS      N/A     50 N/A N/A MISG        N/A
JACKSON        CLOUDY    51  51 100 SE3       30.16S FOG
BOLIVAR        MOCLDY    54  54 100 E5        30.14S
DYERSBURG      CLOUDY    46  45  93 SE5       30.13F
UNION CITY     CLOUDY   N/A N/A N/A CALM      30.14S VSB 1/2
PARIS          CLEAR     45  45 100 E8        30.17S
HUNTINGDON     MOCLDY    48  48 100 E5        30.16S FOG


...EASTERN ARKANSAS...

CITY           SKY/WX    TMP DP  RH WIND       PRES   REMARKS
JONESBORO      FOG       46  45  96 E6        30.12S VSB 1/4
WEST MEMPHIS   CLOUDY    51  51 100 E3        30.10F
BATESVILLE     CLOUDY    45  43  93 CALM      30.12S VSB 1/2
NEWPORT        FOG       45  45 100 N6        30.11F VSB 1/4
WALNUT RIDGE   CLOUDY    45  41  87 N5        30.12S VSB 1/2
BLYTHEVILLE    CLOUDY    49  48  97 SE6       30.13F
SEARCY         FOG       46  46 100 NE5       30.11S VSB 1/2
STUTTGART      MOCLDY    48  43  81 NE3       30.09R
PINE BLUFF     FOG       47  47 100 CALM      30.08R VSB 1/2
MONTICELLO     CLOUDY    55  54  96 SE5       30.07R


...NORTH MISSISSIPPI...

CITY           SKY/WX    TMP DP  RH WIND       PRES   REMARKS
TUPELO         MOCLDY    55  50  83 E5        30.15S
OXFORD         PTCLDY    54  50  87 SE7       30.15R
BATESVILLE     PTCLDY    47  46  97 CALM      30.12F FOG
TUNICA         MOCLDY    50  50 100 E5        30.11S
CLARKSDALE     PTCLDY    52  52 100 SE3       30.10S
CORINTH        CLOUDY    48  48 100 CALM      30.16R FOG
GREENWOOD      CLOUDY    60  55  83 S6        30.10S
STARKVILLE     PTCLDY    54  52  94 CALM      30.16R
GOLDEN TRIANGL CLOUDY    57  48  72 SE7       30.12R


...SOUTHEAST MISSOURI...

CITY           SKY/WX    TMP DP  RH WIND       PRES   REMARKS
KENNETT        FOG       43  43 100 CALM      30.12S VSB 1/4
WEST PLAINS    FOG       43  42  97 E6        30.09F VSB 1/2
POPLAR BLUFF   FOG       42  42 100 NE3       30.14S VSB 1/2
CAPE GIRARDEAU FOG       42  41  96 NE5       30.15F VSB 1/4


...NORTHWEST ALABAMA...

CITY           SKY/WX    TMP DP  RH WIND       PRES   REMARKS
MUSCLE SHOALS  CLOUDY    54  51  90 E3        30.20R


...MIDDLE TENNESSEE...

CITY           SKY/WX    TMP DP  RH WIND       PRES   REMARKS
NASHVILLE      FOG       49  48  97 CALM      30.23R VSB 1/4
CLARKSVILLE    FOG       45  44  97 E6        30.20F VSB 1/4
COLUMBIA       CLOUDY   N/A N/A N/A CALM      30.19S


...WESTERN KENTUCKY...

CITY           SKY/WX    TMP DP  RH WIND       PRES   REMARKS
PADUCAH        FOG       45  43  93 E6        30.16F VSB 1/2
FORT CAMPBELL  FOG       45  45 100 E6        30.19F VSB 3/4


...CENTRAL ARKANSAS...

CITY           SKY/WX    TMP DP  RH WIND       PRES   REMARKS
LITTLE ROCK    FOG       45  32  60 NE5       30.08S VSB 1/2


SKY/WX REPORTED AS FAIR MEANS FEW OR NO CLOUDS BELOW
12 THOUSAND FEET.





USA.gov is the U.S. government's official web portal to all federal, state and local government web resources and services.